Mariner Of The Seas — C6FV9 — position and weather

sailwx.info

Track history (hours):
 
Tides and Currents Weather Stations Pressure Air Temp Water Temp Dewpoint Dewpoint Depression Visibility Wind Speed Wind Dir Waves Ship Positions

Mariner Of The Seas

Operator: Royal Caribbean Cruises Ltd

Last reported at 2014-Oct-30 10:23 UTC. Time now 2014-Oct-30 18:22 UTC.
Position N 31°19' E 121°45'.

Type: Passenger vessel. MMSI: 311493000.

Date/timePositionNaut miles runAvg speedWind from/ knotsBaromVisibWave heightAir tempDewpointWater temp
2014-Oct-30 10:23N 31°19' E 121°45'910.9
2014-Oct-30 09:33N 31°23' E 121°35'5 4.7
2014-Oct-30 08:30N 31°25' E 121°30'0 0.0
2014-Oct-30 07:30N 31°25' E 121°30'0 0.0
2014-Oct-30 06:31N 31°25' E 121°30'0 0.0
2014-Oct-30 05:25N 31°25' E 121°30'0 0.0
2014-Oct-30 04:31N 31°25' E 121°30'0 0.0
2014-Oct-30 03:19N 31°25' E 121°30'0 0.0
2014-Oct-30 02:30N 31°25' E 121°30'0 0.0
2014-Oct-30 01:19N 31°25' E 121°30'0 0.0
2014-Oct-30 00:31N 31°25' E 121°30'0 0.0
2014-Oct-29 23:07N 31°25' E 121°30'0 0.0
2014-Oct-29 22:31N 31°25' E 121°30'0 0.0
2014-Oct-29 21:31N 31°25' E 121°30'0 0.0
2014-Oct-29 20:18N 31°25' E 121°30'1 1.7
2014-Oct-29 19:33N 31°25' E 121°32'8 8.1
2014-Oct-29 18:33N 31°21' E 121°40'  
2014-Oct-27 10:13N 31°17' E 121°48'913.3
2014-Oct-27 09:32N 31°21' E 121°39'8 8.0
2014-Oct-27 08:32N 31°25' E 121°30'0 0.0
2014-Oct-27 07:26N 31°25' E 121°30'0 0.0
2014-Oct-27 06:32N 31°25' E 121°30'0 0.0
2014-Oct-27 05:32N 31°25' E 121°30'0 0.0
2014-Oct-27 04:32N 31°25' E 121°30'0 0.0
2014-Oct-27 03:32N 31°25' E 121°30'0 0.0
2014-Oct-27 02:32N 31°25' E 121°30'0 0.0
2014-Oct-27 01:26N 31°25' E 121°30'0 0.0
2014-Oct-27 00:32N 31°25' E 121°30'5 4.9
2014-Oct-26 23:33N 31°23' E 121°35'  
2014-Oct-24 12:33N 33°41' E 129°54'10 9.6
2014-Oct-24 11:32N 33°45' E 130°05'9 9.1
2014-Oct-24 10:33N 33°43' E 130°15'9 9.1
2014-Oct-24 09:32N 33°37' E 130°24'0 0.2
2014-Oct-24 08:32N 33°37' E 130°24'0 0.0
2014-Oct-24 07:32N 33°37' E 130°24'0 0.0
2014-Oct-24 06:32N 33°37' E 130°24'0 0.0
2014-Oct-24 05:32N 33°37' E 130°24'0 0.0
2014-Oct-24 04:32N 33°37' E 130°24'0 0.0
2014-Oct-24 03:32N 33°37' E 130°24'0 0.0
2014-Oct-24 02:32N 33°37' E 130°24'0 0.0
2014-Oct-24 01:32N 33°37' E 130°24'0 0.0
2014-Oct-24 00:32N 33°37' E 130°24'0 0.0
2014-Oct-23 23:32N 33°37' E 130°24'5 4.9
2014-Oct-23 22:33N 33°39' E 130°19'1313.3
2014-Oct-23 21:33N 33°52' E 130°18'  
2014-Oct-21 09:33N 31°21' E 121°40'9 7.2
2014-Oct-21 08:16N 31°25' E 121°30'0 0.0
2014-Oct-21 07:28N 31°25' E 121°30'0 0.0
2014-Oct-21 06:28N 31°25' E 121°30'0 0.0
2014-Oct-21 05:10N 31°25' E 121°30'0 0.0
2014-Oct-21 04:28N 31°25' E 121°30'0 0.0
2014-Oct-21 03:28N 31°25' E 121°30'0 0.0
2014-Oct-21 02:16N 31°25' E 121°30'0 0.0
2014-Oct-21 01:22N 31°25' E 121°30'0 0.0
2014-Oct-21 00:22N 31°25' E 121°30'0 0.0
2014-Oct-20 23:22N 31°25' E 121°30'4 4.7
2014-Oct-20 22:33N 31°23' E 121°34'1511.8
2014-Oct-20 21:15N 31°17' E 121°51'2210.5
2014-Oct-20 19:07N 31°08' E 122°15'711.8
2014-Oct-20 18:32N 31°06' E 122°23'  
Track history (hours):
 
Tides and Currents Weather Stations Pressure Air Temp Water Temp Dewpoint Dewpoint Depression Visibility Wind Speed Wind Dir Waves Ship Positions

Mariner Of The Seas

Operator: Royal Caribbean Cruises Ltd

Last reported at 2014-Oct-30 10:23 UTC. Time now 2014-Oct-30 18:22 UTC.
Position N 31°19' E 121°45'.

Type: Passenger vessel. MMSI: 311493000.

Date/timePositionNaut miles runAvg speedWind from/ knotsBaromVisibWave heightAir tempDewpointWater temp
2014-Oct-30 10:23N 31°19' E 121°45'910.9
2014-Oct-30 09:33N 31°23' E 121°35'5 4.7
2014-Oct-30 08:30N 31°25' E 121°30'0 0.0
2014-Oct-30 07:30N 31°25' E 121°30'0 0.0
2014-Oct-30 06:31N 31°25' E 121°30'0 0.0
2014-Oct-30 05:25N 31°25' E 121°30'0 0.0
2014-Oct-30 04:31N 31°25' E 121°30'0 0.0
2014-Oct-30 03:19N 31°25' E 121°30'0 0.0
2014-Oct-30 02:30N 31°25' E 121°30'0 0.0
2014-Oct-30 01:19N 31°25' E 121°30'0 0.0
2014-Oct-30 00:31N 31°25' E 121°30'0 0.0
2014-Oct-29 23:07N 31°25' E 121°30'0 0.0
2014-Oct-29 22:31N 31°25' E 121°30'0 0.0
2014-Oct-29 21:31N 31°25' E 121°30'0 0.0
2014-Oct-29 20:18N 31°25' E 121°30'1 1.7
2014-Oct-29 19:33N 31°25' E 121°32'8 8.1
2014-Oct-29 18:33N 31°21' E 121°40'  
2014-Oct-27 10:13N 31°17' E 121°48'913.3
2014-Oct-27 09:32N 31°21' E 121°39'8 8.0
2014-Oct-27 08:32N 31°25' E 121°30'0 0.0
2014-Oct-27 07:26N 31°25' E 121°30'0 0.0
2014-Oct-27 06:32N 31°25' E 121°30'0 0.0
2014-Oct-27 05:32N 31°25' E 121°30'0 0.0
2014-Oct-27 04:32N 31°25' E 121°30'0 0.0
2014-Oct-27 03:32N 31°25' E 121°30'0 0.0
2014-Oct-27 02:32N 31°25' E 121°30'0 0.0
2014-Oct-27 01:26N 31°25' E 121°30'0 0.0
2014-Oct-27 00:32N 31°25' E 121°30'5 4.9
2014-Oct-26 23:33N 31°23' E 121°35'  
2014-Oct-24 12:33N 33°41' E 129°54'10 9.6
2014-Oct-24 11:32N 33°45' E 130°05'9 9.1
2014-Oct-24 10:33N 33°43' E 130°15'9 9.1
2014-Oct-24 09:32N 33°37' E 130°24'0 0.2
2014-Oct-24 08:32N 33°37' E 130°24'0 0.0
2014-Oct-24 07:32N 33°37' E 130°24'0 0.0
2014-Oct-24 06:32N 33°37' E 130°24'0 0.0
2014-Oct-24 05:32N 33°37' E 130°24'0 0.0
2014-Oct-24 04:32N 33°37' E 130°24'0 0.0
2014-Oct-24 03:32N 33°37' E 130°24'0 0.0
2014-Oct-24 02:32N 33°37' E 130°24'0 0.0
2014-Oct-24 01:32N 33°37' E 130°24'0 0.0
2014-Oct-24 00:32N 33°37' E 130°24'0 0.0
2014-Oct-23 23:32N 33°37' E 130°24'5 4.9
2014-Oct-23 22:33N 33°39' E 130°19'1313.3
2014-Oct-23 21:33N 33°52' E 130°18'  
2014-Oct-21 09:33N 31°21' E 121°40'9 7.2
2014-Oct-21 08:16N 31°25' E 121°30'0 0.0
2014-Oct-21 07:28N 31°25' E 121°30'0 0.0
2014-Oct-21 06:28N 31°25' E 121°30'0 0.0
2014-Oct-21 05:10N 31°25' E 121°30'0 0.0
2014-Oct-21 04:28N 31°25' E 121°30'0 0.0
2014-Oct-21 03:28N 31°25' E 121°30'0 0.0
2014-Oct-21 02:16N 31°25' E 121°30'0 0.0
2014-Oct-21 01:22N 31°25' E 121°30'0 0.0
2014-Oct-21 00:22N 31°25' E 121°30'0 0.0
2014-Oct-20 23:22N 31°25' E 121°30'4 4.7
2014-Oct-20 22:33N 31°23' E 121°34'1511.8
2014-Oct-20 21:15N 31°17' E 121°51'2210.5
2014-Oct-20 19:07N 31°08' E 122°15'711.8
2014-Oct-20 18:32N 31°06' E 122°23'  

Dump ship's entire track history